sat.trackr.live / text

‹ back to catalog

DRISHTI

NORAD 69010 · 2026-100AG

PAYLOAD ACTIVE UNKNOWN

§ Identity

Operator
Country
IND
Launch date
2026-05-03
Launch site
AFWTR
Launch vehicle
Mass (kg)
RCS (m²)

External: N2YO · Heavens-Above · Gunter

§ Orbital elements

Epoch: 2026-05-25T04:26:50.549856Z

Period
94.72 min
Inclination
97.4065°
Eccentricity
0.0007079
Mean motion
15.20316709 rev/d
Perigee alt
500.0 km
Apogee alt
509.8 km
Semi-major
6,883.0 km
B*
1.1352e-4
RAAN
43.4212°
Arg perigee
104.3657°
Mean anomaly
255.8364°
Rev number
331

§ Raw data

DRISHTI1 69010U 26100AG  26145.18530729  .00002400  00000+0  11352-3 0  99982 69010  97.4065  43.4212 0007079 104.3657 255.8364 15.20316709  3318

JSON: /api/v1/satellites/69010 · /tle

For live sub-satellite position, see the globe view (requires WebGL).

§ Visibility from observer

Set your observer location to see the next 7 days of passes ≥ 10°. The values pass through the URL so the page stays shareable.

No JS? Fill the form by hand. The geolocation button needs JavaScript.